Weather History for Martinsville, VA

Change the Weather History Date:

Thursday, August 8, 2013

  Actual Average (KGSO) Record (KGSO)
Temperature  
Mean Temperature 76 °F 78 °F  
Max Temperature 85 °F 87 °F 101 °F (1918)
Min Temperature 68 °F 69 °F 55 °F (2004)
Degree Days  
Heating Degree Days 0 0  
Month to date heating degree days 0  
Since 1 June heating degree days 6  
Since 1 July heating degree days 0  
Cooling Degree Days 12 13  
Month to date cooling degree days 104  
Year to date cooling degree days 989  
Since 1 June cooling degree days 830  
Growing Degree Days 26 (Base 50)    
Moisture  
Dew Point 71 °F    
Average Humidity 87    
Maximum Humidity 97    
Minimum Humidity 64    
Precipitation  
Precipitation 0.16 in 0.12 in 3.18 in (1998)
Month to date precipitation 1.07  
Year to date precipitation 25.98  
Sea Level Pressure  
Sea Level Pressure 30.08 in    
Wind  
Wind Speed 1 mph (SSW)    
Max Wind Speed 8 mph    
Max Gust Speed -    
Visibility 6 miles    
Events Fog , Rain , Thunderstorm    
T = Trace of Precipitation, MM = Missing Value Source: NWS Daily Summary

Daily Weather History Graph

Daily Weather History Graph

Search for Another Location

Airport:

Trip Planner

Search our weather history database for the weather conditions in past years. The results will help you decide how hot, cold, wet, or windy it might be!

Date:

Astronomy

Aug. 08, 2013 Rise Set
Actual Time 6:31 AM EDT 8:18 PM EDT
Civil Twilight 6:03 AM EDT 8:46 PM EDT
Nautical Twilight 5:30 AM EDT 9:20 PM EDT
Astronomical Twilight 4:54 AM EDT 9:56 PM EDT
Moon 8:12 AM EDT (8/8) 9:01 PM EDT (8/8)
Length of Visible Light 14h 42m
Length of Day
13h 46m
Waxing Crescent, 3% of the Moon is Illuminated
Aug 8
Waxing Crescent
Aug 14
First Quarter
Aug 20
Full
Aug 28
Last Quarter
Sep 5
New

Hourly Weather History & Observations

Time (EDT) Temp. Heat Index Dew Point Humidity Pressure Visibility Wind Dir Wind Speed Gust Speed Precip Events Conditions
12:15 AM 71.1 °F - 69.8 °F 96% 30.10 in 5.0 mi Calm Calm - N/A   Mostly Cloudy
12:35 AM 70.0 °F - 68.9 °F 96% 30.10 in 3.0 mi Calm Calm - N/A   Scattered Clouds
12:55 AM 69.8 °F - 68.5 °F 96% 30.10 in 2.5 mi Calm Calm - N/A   Mostly Cloudy
1:15 AM 70.0 °F - 68.9 °F 96% 30.10 in 3.0 mi Calm Calm - N/A   Overcast
1:35 AM 70.2 °F - 69.3 °F 97% 30.09 in 4.0 mi Calm Calm - N/A   Overcast
1:55 AM 70.5 °F - 69.4 °F 96% 30.09 in 3.0 mi Calm Calm - N/A   Overcast
2:15 AM 69.8 °F - 68.9 °F 97% 30.09 in 4.0 mi Calm Calm - N/A   Scattered Clouds
2:35 AM 69.8 °F - 68.5 °F 96% 30.09 in 5.0 mi Calm Calm - N/A   Mostly Cloudy
2:55 AM 69.8 °F - 68.5 °F 96% 30.09 in 5.0 mi Calm Calm - N/A   Scattered Clouds
3:15 AM 68.9 °F - 67.6 °F 96% 30.08 in 4.0 mi Calm Calm - N/A   Clear
3:35 AM 68.7 °F - 67.8 °F 97% 30.09 in 2.5 mi Calm Calm - N/A   Scattered Clouds
3:55 AM 68.9 °F - 68.0 °F 97% 30.09 in 4.0 mi Calm Calm - N/A   Mostly Cloudy
4:15 AM 68.9 °F - 68.0 °F 97% 30.09 in 4.0 mi Calm Calm - N/A   Mostly Cloudy
4:35 AM 68.9 °F - 68.0 °F 97% 30.09 in 4.0 mi Calm Calm - N/A   Overcast
4:55 AM 68.9 °F - 68.0 °F 97% 30.08 in 4.0 mi Calm Calm - N/A   Overcast
5:15 AM 68.9 °F - 68.0 °F 97% 30.08 in 4.0 mi Calm Calm - N/A   Overcast
5:35 AM 68.9 °F - 68.0 °F 97% 30.08 in 4.0 mi Calm Calm - N/A   Overcast
5:55 AM 69.6 °F - 68.4 °F 96% 30.08 in 5.0 mi Calm Calm - N/A   Overcast
6:15 AM 69.8 °F - 68.5 °F 96% 30.08 in 5.0 mi Calm Calm - N/A   Overcast
6:35 AM 69.8 °F - 68.5 °F 96% 30.09 in 7.0 mi Calm Calm - N/A   Overcast
6:55 AM 69.8 °F - 68.5 °F 96% 30.09 in 5.0 mi Calm Calm - N/A   Overcast
7:15 AM 70.5 °F - 69.1 °F 95% 30.09 in 5.0 mi Calm Calm - N/A   Overcast
7:35 AM 70.9 °F - 69.3 °F 95% 30.09 in 7.0 mi Calm Calm - N/A   Overcast
7:55 AM 70.9 °F - 69.3 °F 95% 30.10 in 7.0 mi Calm Calm - N/A   Overcast
8:15 AM 71.6 °F - 69.8 °F 94% 30.10 in 10.0 mi Calm Calm - N/A   Overcast
8:35 AM 72.5 °F - 70.0 °F 92% 30.10 in 10.0 mi Calm Calm - N/A   Overcast
8:55 AM 73.6 °F - 70.2 °F 89% 30.10 in 10.0 mi SW 3.5 mph - N/A   Overcast
9:15 AM 73.6 °F - 70.0 °F 88% 30.11 in 10.0 mi SSW 3.5 mph - N/A   Overcast
9:35 AM 73.9 °F - 70.0 °F 87% 30.11 in 10.0 mi SSW 3.5 mph - N/A   Overcast
9:55 AM 74.8 °F - 70.0 °F 85% 30.10 in 10.0 mi Calm Calm - N/A   Overcast
10:15 AM 76.6 °F - 70.7 °F 82% 30.10 in 10.0 mi SSW 5.8 mph - N/A   Overcast
10:35 AM 77.5 °F - 71.1 °F 80% 30.11 in 10.0 mi Calm Calm - N/A   Overcast
10:55 AM 79.0 °F - 71.2 °F 77% 30.11 in 10.0 mi SW 3.5 mph - N/A   Overcast
11:15 AM 78.4 °F - 70.9 °F 77% 30.12 in 10.0 mi SSW 5.8 mph - N/A   Overcast
11:35 AM 80.1 °F 83.8 °F 71.8 °F 76% 30.12 in 10.0 mi SSW 8.1 mph - N/A   Overcast
11:55 AM 79.5 °F - 72.0 °F 78% 30.12 in 10.0 mi South 4.6 mph - N/A   Overcast
12:15 PM 79.3 °F - 71.8 °F 78% 30.11 in 10.0 mi SSW 6.9 mph - N/A   Overcast
12:35 PM 81.5 °F 86.3 °F 72.3 °F 74% 30.11 in 10.0 mi SSW 5.8 mph - N/A   Mostly Cloudy
12:55 PM 82.6 °F 87.6 °F 71.8 °F 70% 30.10 in 10.0 mi South 4.6 mph - N/A   Scattered Clouds
1:15 PM 83.8 °F 89.5 °F 72.3 °F 68% 30.10 in 10.0 mi SSE 4.6 mph - N/A   Scattered Clouds
1:35 PM 85.5 °F 91.5 °F 72.1 °F 64% 30.10 in 10.0 mi SSW 5.8 mph - N/A   Scattered Clouds
1:55 PM 83.1 °F 88.4 °F 72.1 °F 69% 30.09 in 10.0 mi SSE 4.6 mph - N/A   Mostly Cloudy
2:15 PM 83.7 °F 89.4 °F 72.5 °F 69% 30.08 in 10.0 mi Calm Calm - N/A   Mostly Cloudy
2:35 PM 81.9 °F 87.0 °F 73.0 °F 74% 30.08 in 10.0 mi South 3.5 mph - N/A Rain Light Rain
2:55 PM 83.5 °F 90.0 °F 73.4 °F 72% 30.08 in 10.0 mi South 3.5 mph - N/A   Overcast
3:15 PM 85.5 °F 91.8 °F 72.7 °F 65% 30.07 in 10.0 mi SSW 4.6 mph - N/A   Mostly Cloudy
3:35 PM 84.6 °F 91.0 °F 73.0 °F 68% 30.06 in 10.0 mi South 3.5 mph - N/A   Mostly Cloudy
3:55 PM 85.3 °F 91.5 °F 72.3 °F 65% 30.05 in 10.0 mi SSW 5.8 mph - N/A   Mostly Cloudy
4:15 PM 84.2 °F 90.6 °F 72.9 °F 69% 30.05 in 10.0 mi SSW 6.9 mph - N/A   Mostly Cloudy
4:35 PM 84.2 °F 90.6 °F 72.9 °F 69% 30.05 in 10.0 mi SSE 3.5 mph - N/A   Mostly Cloudy
4:55 PM 83.7 °F 89.7 °F 73.0 °F 70% 30.06 in 10.0 mi SSW 4.6 mph - N/A   Mostly Cloudy
5:15 PM 82.0 °F 87.9 °F 73.8 °F 76% 30.05 in 10.0 mi SW 3.5 mph - N/A   Mostly Cloudy
5:35 PM 80.1 °F 84.6 °F 74.1 °F 82% 30.05 in 7.0 mi Calm Calm - N/A Rain Rain
5:55 PM 78.8 °F - 74.8 °F 88% 30.06 in 10.0 mi Calm Calm - N/A   Light Drizzle
6:15 PM 80.1 °F 85.2 °F 75.4 °F 86% 30.05 in 10.0 mi Calm Calm - N/A   Mostly Cloudy
6:35 PM 80.1 °F 85.2 °F 75.4 °F 86% 30.06 in 10.0 mi Calm Calm - N/A   Scattered Clouds
6:55 PM 79.3 °F - 75.2 °F 87% 30.07 in 10.0 mi Calm Calm - N/A Thunderstorm Mostly Cloudy
7:15 PM 78.1 °F - 75.2 °F 91% 30.07 in 5.0 mi Calm Calm - 0.01 in Rain , Thunderstorm Thunderstorms and Rain
7:35 PM 75.9 °F - 73.6 °F 92% 30.07 in 2.5 mi Calm Calm - 0.14 in Rain Light Rain
7:55 PM 75.2 °F - 73.4 °F 94% 30.08 in 5.0 mi Calm Calm - 0.14 in   Mostly Cloudy
8:15 PM 74.8 °F - 73.6 °F 96% 30.07 in 1.5 mi Calm Calm - N/A Rain Rain
8:35 PM 74.8 °F - 73.6 °F 96% 30.08 in 4.0 mi Calm Calm - 0.01 in   Light Drizzle
8:55 PM 74.8 °F - 73.6 °F 96% 30.07 in 2.5 mi Calm Calm - 0.01 in Rain Light Rain
9:15 PM 74.3 °F - 73.2 °F 96% 30.07 in 2.0 mi Calm Calm - N/A   Light Drizzle
9:35 PM 73.9 °F - 72.9 °F 96% 30.07 in 1.2 mi Calm Calm - 0.01 in   Overcast
9:55 PM 73.4 °F - 72.3 °F 96% 30.07 in 0.8 mi Calm Calm - 0.01 in   Overcast
10:15 PM 73.2 °F - 72.3 °F 97% 30.07 in 1.5 mi Calm Calm - N/A   Mostly Cloudy
10:35 PM 73.6 °F - 72.7 °F 97% 30.07 in 0.8 mi Calm Calm - N/A   Overcast
10:55 PM 73.0 °F - 72.1 °F 97% 30.07 in 1.2 mi Calm Calm - N/A   Overcast
11:15 PM 73.0 °F - 72.1 °F 97% 30.07 in 0.5 mi Calm Calm - N/A Fog Fog
11:35 PM 73.0 °F - 72.1 °F 97% 30.07 in 0.5 mi Calm Calm - N/A Fog Fog
11:55 PM 73.0 °F - 72.1 °F 97% 30.07 in 0.5 mi Calm Calm - N/A Fog Fog